IRIDIUM 51

Last updated on Wed Nov 29 2017 00:19:02 GMT+0000 (Coordinated Universal Time)

1 25262U 98018A 17332.19311301 .00000998 00000-0 69127-4 0 9993 2 25262 86.4017 249.9146 0211258 113.3770 248.9831 14.87652710 34734

Satellite not in orbit

IRIDIUM 51